Terug naar catalogus

TIANHUI 5C

ActiefWetenschapSSO
NORAD 60211·PAYLOAD·🇨🇳 China

Gelanceerd Jul 4, 2024 vanaf Taiyuan Satellite Launch Center

Loading…

Volgende Passages (komende 24 uur)

TLE

VersSource: Space-Track

Epoch: Sep 14, 2026, 08:37 UTC

1 60211U 24126A   26257.35964617  .00000262  00000-0  34783-4 0  9997
2 60211  97.8215 263.6560 0001557  89.4530 270.6865 14.87579907119146

Volg TIANHUI 5C in realtime met AllMySat

Download on the App Store